F4AMY-13 Weather Reports


time (UTC)temp
F
wind
direction
speed
knots
gust
knots
rain 1hr
in
rain 24hr
in
rain mn
in
humidity
%
barometer
mb
20260506164243 71 245 0.0 0.0 0.00 1.47 3.90 51 1008.6
20260506163743 71 242 0.9 6.1 0.00 1.47 3.90 53 1008.7
20260506163243 71 23 7.8 13.0 0.00 1.47 3.90 53 1008.8
20260506162743 70 234 0.0 0.0 0.00 1.47 3.90 55 1008.4
20260506162243 70 277 0.0 6.1 0.00 1.47 3.90 53 1008.3
20260506161743 69 303 2.6 6.1 0.00 1.47 3.90 53 1008.7
20260506161243 68 270 0.0 6.1 0.00 1.47 3.90 55 1008.5
20260506160743 68 277 0.0 6.1 0.00 1.47 3.90 58 1008.6
20260506160243 68 225 0.0 0.0 0.00 1.47 3.90 57 1008.8
20260506155743 67 274 0.0 6.1 0.00 1.47 3.90 59 1008.8
20260506155243 67 282 1.7 6.1 0.00 1.47 3.90 60 1008.6
20260506154743 67 47 0.0 0.0 0.00 1.47 3.90 60 1008.6
20260506154243 66 222 0.0 0.0 0.00 1.47 3.90 59 1008.6
20260506153743 66 44 0.0 0.0 0.00 1.47 3.90 57 1008.7
20260506153242 67 221 0.0 6.1 0.00 1.47 3.90 62 1008.5
20260506152742 67 227 0.0 0.0 0.00 1.47 3.90 62 1008.6
20260506152242 68 359 0.0 0.0 0.00 1.47 3.90 63 1008.3
20260506151742 69 297 0.9 6.1 0.00 1.47 3.90 62 1008.7
20260506151242 71 278 0.0 0.0 0.00 1.47 3.90 59 1008.5
20260506150742 72 288 1.7 6.1 0.00 1.47 3.90 56 1008.6
20260506150242 73 300 0.0 6.1 0.00 1.47 3.90 55 1008.6
20260506145742 73 254 0.0 6.1 0.00 1.47 3.90 53 1008.6
20260506145242 74 19 0.0 0.0 0.00 1.47 3.90 54 1008.7
20260506144742 74 153 0.0 6.1 0.00 1.47 3.90 48 1008.8
20260506144242 74 201 2.6 6.1 0.00 1.47 3.90 51 1008.7
20260506143742 74 17 0.9 6.1 0.00 1.47 3.90 48 1008.9
20260506143242 73 56 0.0 6.1 0.00 1.47 3.90 49 1008.9
20260506142742 73 263 5.2 13.0 0.00 1.47 3.90 50 1008.9
20260506142242 73 320 1.7 6.1 0.00 1.47 3.90 49 1008.8
20260506141742 73 245 0.0 0.0 0.00 1.47 3.90 49 1008.7
20260506141242 73 291 1.7 6.1 0.00 1.47 3.90 46 1008.8
20260506140741 73 264 6.1 13.0 0.00 1.47 3.90 48 1008.7
20260506140241 73 304 2.6 6.1 0.00 1.47 3.90 46 1009.1
20260506135741 73 276 0.0 0.0 0.00 1.47 3.90 51 1008.6
20260506135241 73 200 0.0 6.1 0.00 1.47 3.90 52 1008.6
20260506134741 72 267 0.0 0.0 0.00 1.47 3.90 53 1008.7
20260506134241 72 279 0.0 0.0 0.00 1.47 3.90 52 1008.9
20260506133741 72 252 0.0 6.1 0.00 1.47 3.90 53 1008.8
20260506133241 72 270 0.0 0.0 0.00 1.47 3.90 56 1008.8
20260506132741 72 277 2.6 13.0 0.00 1.47 3.90 54 1009.0
20260506132241 72 50 0.0 6.1 0.00 1.47 3.90 53 1008.9
20260506131741 71 202 0.0 0.0 0.00 1.47 3.90 52 1009.1
20260506131241 71 262 0.0 6.1 0.00 1.47 3.90 57 1008.8
20260506130741 71 251 0.0 0.0 0.00 1.47 3.90 59 1009.0
20260506130241 70 277 0.9 6.1 0.00 1.47 3.90 58 1008.8
20260506125741 69 206 7.0 13.0 0.00 1.47 3.90 54 1009.0
20260506125241 69 270 0.0 0.0 0.00 1.47 3.90 59 1008.9
20260506124741 69 209 0.0 0.0 0.00 1.47 3.90 58 1008.8
20260506124241 69 160 0.0 6.1 0.00 1.47 3.90 58 1008.9
20260506123741 69 49 0.0 6.1 0.00 1.47 3.90 62 1008.8
20260506123241 69 4 2.6 6.1 0.00 1.47 3.90 59 1009.0
20260506122741 70 271 0.0 0.0 0.00 1.47 3.90 59 1008.8
20260506122240 70 271 0.0 0.0 0.00 1.47 3.90 59 1008.8
20260506121740 70 243 1.7 13.0 0.00 1.47 3.90 60 1009.2
20260506121240 70 261 0.0 0.0 0.00 1.47 3.90 58 1008.9
20260506120740 71 266 0.0 6.1 0.00 1.47 3.90 60 1008.9
20260506120240 71 298 0.9 6.1 0.00 1.47 3.90 58 1008.8
20260506115740 71 241 0.0 0.0 0.00 1.47 3.90 57 1009.0
20260506115240 71 267 0.0 0.0 0.00 1.47 3.90 56 1008.8
20260506114740 71 34 2.6 6.1 0.00 1.47 3.90 55 1008.8
20260506114241 71 195 0.0 0.0 0.00 1.47 3.90 52 1009.0
20260506113740 70 294 0.0 0.0 0.00 1.47 3.90 52 1008.9
20260506113240 70 250 0.0 0.0 0.00 1.47 3.90 52 1008.8
20260506112740 69 16 0.9 6.1 0.00 1.47 3.90 54 1009.1
20260506112240 69 236 0.0 0.0 0.00 1.47 3.90 52 1009.3
20260506111740 68 231 0.0 6.1 0.00 1.47 3.90 52 1009.2
20260506111240 68 237 0.0 0.0 0.00 1.47 3.90 56 1009.2
20260506110739 67 276 1.7 6.1 0.00 1.47 3.90 55 1009.3
20260506110239 67 193 0.0 0.0 0.00 1.47 3.90 56 1009.5
20260506105739 66 16 0.0 0.0 0.00 1.47 3.90 56 1009.3
20260506105239 66 240 0.0 0.0 0.00 1.47 3.90 61 1009.2
20260506104739 65 249 6.1 13.0 0.00 1.47 3.90 57 1009.3
20260506104239 65 226 0.0 6.1 0.00 1.47 3.90 59 1009.1
20260506103739 65 243 0.0 6.1 0.00 1.47 3.90 61 1009.5
20260506103239 64 220 0.9 6.1 0.00 1.47 3.90 61 1009.5
20260506102739 64 254 0.0 0.0 0.00 1.47 3.90 62 1009.4
20260506102239 64 257 0.0 0.0 0.00 1.47 3.90 63 1009.6
20260506101739 63 241 0.0 0.0 0.00 1.47 3.90 65 1009.4
20260506101239 63 221 0.0 0.0 0.00 1.47 3.90 69 1009.5
20260506100739 62 266 0.0 0.0 0.00 1.47 3.90 70 1009.5
20260506100239 62 355 0.0 0.0 0.00 1.47 3.90 71 1009.4
20260506095739 62 245 0.0 0.0 0.00 1.47 3.90 69 1009.4
20260506095238 61 184 0.0 0.0 0.00 1.47 3.90 71 1009.3
20260506094738 61 193 0.0 0.0 0.00 1.47 3.90 70 1009.3
20260506094238 60 233 0.0 6.1 0.00 1.47 3.90 71 1009.7
20260506093738 60 245 0.0 0.0 0.00 1.47 3.90 74 1009.4
20260506093238 60 239 0.0 0.0 0.00 1.47 3.90 77 1009.3
20260506092738 60 250 0.0 6.1 0.00 1.47 3.90 75 1009.4
20260506092238 59 261 0.0 0.0 0.00 1.47 3.90 75 1009.4
20260506091738 59 273 1.7 6.1 0.00 1.47 3.90 73 1009.4
20260506091238 59 246 0.0 0.0 0.00 1.47 3.90 77 1009.4
20260506090738 59 262 0.0 0.0 0.00 1.47 3.90 75 1009.3
20260506090238 58 6 0.0 0.0 0.00 1.47 3.90 78 1009.3
20260506085738 58 225 0.0 0.0 0.00 1.47 3.90 77 1009.2
20260506085238 57 273 0.0 0.0 0.00 1.47 3.90 76 1009.2
20260506084738 57 244 0.0 0.0 0.00 1.47 3.90 77 1009.2
20260506084238 57 197 0.0 0.0 0.00 1.47 3.90 79 1009.2
20260506083738 57 289 0.0 0.0 0.00 1.47 3.90 81 1009.2
20260506083238 56 219 0.0 0.0 0.00 1.47 3.90 83 1009.3
20260506082737 56 222 0.0 0.0 0.00 1.47 3.90 84 1009.1
20260506082237 56 264 0.0 0.0 0.00 1.47 3.90 84 1009.5
20260506081737 56 276 0.0 0.0 0.00 1.47 3.90 85 1009.2
20260506081237 55 251 3.5 6.1 0.00 1.47 3.90 86 1009.2
20260506080737 55 250 0.0 0.0 0.00 1.47 3.90 88 1009.2
20260506080237 55 186 0.0 0.0 0.00 1.47 3.90 86 1009.1
20260506073237 53 235 0.0 0.0 0.00 1.47 3.90 93 1009.0
20260506072737 53 255 0.0 0.0 0.00 1.47 3.90 93 1009.0
20260506072237 53 215 0.0 0.0 0.00 1.47 3.90 93 1009.0
20260506071737 53 218 0.0 0.0 0.00 1.47 3.90 93 1008.9
20260506071237 53 288 0.0 0.0 0.00 1.47 3.90 94 1009.0
20260506070736 53 243 0.0 0.0 0.00 1.47 3.90 94 1009.0
20260506070236 53 232 0.0 0.0 0.00 1.47 3.90 94 1008.8
20260506062236 52 229 0.0 0.0 0.00 1.47 3.90 95 1008.4
20260506061736 52 239 0.0 0.0 0.00 1.47 3.90 95 1008.5
20260506061236 52 249 0.0 0.0 0.00 1.47 3.90 95 1008.7
20260506060736 52 242 0.0 0.0 0.00 1.47 3.90 95 1008.6
20260506060236 52 282 0.0 0.0 0.00 1.47 3.90 95 1008.4
20260506051235 52 264 0.0 0.0 0.00 1.47 3.90 95 1007.9
20260506050735 52 254 0.0 0.0 0.00 1.47 3.90 95 1008.1
20260506050235 52 267 0.0 0.0 0.00 1.47 3.90 95 1007.9
20260506044735 52 265 0.0 0.0 0.00 1.47 3.90 95 1007.8
20260506044235 52 260 0.0 0.0 0.00 1.47 3.90 95 1007.6
20260506043735 52 259 0.0 0.0 0.00 1.47 3.90 95 1007.5
20260506043235 53 262 0.0 0.0 0.00 1.47 3.90 95 1007.6
20260506042735 53 260 0.0 0.0 0.00 1.47 3.90 95 1007.5
20260506042235 53 265 0.0 0.0 0.00 1.47 3.90 95 1007.5
20260506041735 53 246 0.0 0.0 0.00 1.47 3.90 95 1007.5
20260506041234 53 248 0.0 0.0 0.00 1.47 3.90 95 1007.7
20260506040734 53 255 0.0 0.0 0.00 1.47 3.90 95 1007.6
20260506040234 53 253 0.0 0.0 0.00 1.47 3.90 95 1007.6
20260506035734 53 280 0.0 0.0 0.00 1.47 3.90 95 1007.7
20260506035234 53 258 0.0 0.0 0.00 1.47 3.90 95 1007.6
20260506034734 53 258 0.0 0.0 0.00 1.47 3.90 95 1007.7
20260506034234 53 257 0.0 0.0 0.00 1.47 3.90 95 1007.5
20260506033734 53 249 0.0 0.0 0.00 1.47 3.90 95 1007.7
20260506033234 53 269 0.0 0.0 0.00 1.47 3.90 95 1007.2
20260506032734 53 262 0.0 0.0 0.00 1.47 3.90 95 1007.4
20260506032234 53 259 0.0 0.0 0.00 1.47 3.90 95 1007.4
20260506031734 53 266 0.0 0.0 0.00 1.47 3.90 95 1007.3
20260506031234 53 264 0.0 0.0 0.00 1.47 3.90 95 1007.5
20260506030734 52 257 0.0 0.0 0.00 1.47 3.90 95 1007.5
20260506030234 52 263 0.0 0.0 0.00 1.47 3.90 95 1007.5
20260506025734 52 251 0.0 0.0 0.00 1.47 3.90 95 1007.5
20260506025234 52 267 0.0 0.0 0.00 1.47 3.90 94 1007.3
20260506024733 52 261 0.0 0.0 0.00 1.47 3.90 94 1007.4
20260506024233 52 269 0.0 0.0 0.00 1.47 3.90 94 1007.1
20260506023733 52 260 0.0 0.0 0.00 1.47 3.90 94 1007.0
20260506023233 52 258 0.0 0.0 0.00 1.47 3.90 94 1007.1
20260506022733 52 257 0.0 0.0 0.00 1.47 3.90 94 1007.1
20260506022233 52 258 0.0 0.0 0.00 1.47 3.90 94 1007.0
20260506021733 52 254 0.0 0.0 0.00 1.47 3.90 94 1007.0
20260506021233 52 248 0.0 0.0 0.00 1.47 3.90 94 1006.8
20260506020733 52 261 0.0 0.0 0.00 1.47 3.90 94 1006.6
20260506020233 52 262 0.0 0.0 0.00 1.47 3.90 94 1006.5
20260506015733 53 255 0.0 0.0 0.00 1.47 3.90 94 1006.5
20260506015233 53 246 0.0 0.0 0.00 1.47 3.90 94 1006.3
20260506014733 53 260 0.0 0.0 0.00 1.47 3.90 94 1006.1
20260506014233 53 260 0.0 0.0 0.00 1.47 3.90 94 1006.3
20260506013733 53 258 0.0 0.0 0.00 1.47 3.90 94 1006.4
20260506013233 53 260 0.0 0.0 0.00 1.47 3.90 94 1006.2
20260506012733 54 269 0.0 0.0 0.00 1.47 3.90 94 1006.2
20260506012233 54 259 0.0 0.0 0.00 1.47 3.90 94 1006.0
20260506011733 54 253 0.0 0.0 0.00 1.47 3.90 94 1005.9
20260506011232 54 265 0.0 0.0 1.80 1.47 3.90 93 1005.9
20260506010732 54 296 0.0 0.0 1.80 1.47 3.90 93 1006.6
20260506010232 54 280 0.0 0.0 0.00 1.44 3.87 93 1007.1
20260506005732 54 274 0.0 0.0 1.80 1.44 3.87 93 1007.1
20260506005232 54 274 0.0 0.0 1.80 1.44 3.87 93 1007.1
20260506004732 54 266 0.0 0.0 5.40 1.44 3.87 93 1007.3
20260506004232 54 262 0.0 0.0 5.40 1.38 3.81 93 1007.2
20260506003732 54 282 0.0 0.0 7.20 1.35 3.77 93 1007.6
20260506003232 55 249 0.0 0.0 9.00 1.29 3.72 93 1007.7
20260506002732 55 273 0.0 0.0 9.00 1.23 3.66 93 1008.0
20260506002232 55 269 0.0 0.0 1.08 1.14 3.57 93 1007.9
20260506001732 55 230 0.0 0.0 9.00 1.05 3.47 93 1008.3
20260506001232 56 279 0.0 0.0 9.00 9.60 3.39 92 1008.3
20260506000732 56 176 0.0 0.0 5.40 8.69 3.30 92 1008.1
20260506000232 56 277 0.0 0.0 3.60 8.10 3.24 93 1008.2
20260505235732 56 249 0.0 0.0 3.60 7.80 3.21 93 1008.3
20260505235232 56 241 0.0 0.0 1.80 7.50 3.18 93 1008.1
20260505234732 57 257 0.0 0.0 1.80 7.20 3.15 92 1007.8
20260505234232 57 281 0.0 0.0 1.80 7.20 3.15 92 1008.0
20260505233732 57 270 0.0 0.0 1.80 6.90 3.12 92 1007.8
20260505233232 57 258 0.0 0.0 5.40 6.90 3.12 92 1007.4
20260505232732 57 265 0.0 0.0 7.20 6.60 3.09 92 1007.5
20260505232232 57 260 0.0 0.0 7.20 6.00 3.03 91 1007.7
20260505231731 57 260 0.0 0.0 1.26 5.40 2.97 91 1007.7
20260505231231 57 258 0.0 0.0 1.62 4.50 2.88 91 1007.9
20260505230731 57 258 0.0 0.0 1.26 3.00 2.73 91 1008.0
20260505230231 57 259 0.0 0.0 5.40 1.50 2.58 91 1008.3
20260505225731 57 259 0.0 0.0 3.60 0.90 2.52 91 1008.1
20260505225231 57 258 0.0 0.0 3.60 0.60 2.49 91 1008.5
20260505224731 57 260 0.0 0.0 1.80 0.30 2.46 90 1008.3
20260505224231 57 261 0.0 0.0 0.00 0.00 2.43 90 1008.5
20260505223731 57 261 0.0 0.0 0.00 0.00 2.43 90 1008.3
20260505223231 57 261 0.0 0.0 0.00 0.00 2.43 90 1008.3
20260505222731 57 260 0.0 0.0 0.00 0.00 2.43 90 1008.1
20260505222231 58 254 0.0 0.0 0.00 0.00 2.43 89 1008.3
20260505221731 58 262 0.0 0.0 0.00 0.00 2.43 89 1008.3
20260505221231 58 253 0.0 0.0 0.00 0.00 2.43 89 1008.3
20260505220731 58 265 0.0 0.0 0.00 0.00 2.43 89 1008.6
20260505220231 58 265 0.0 0.0 0.00 0.00 2.43 88 1008.7
20260505215731 58 253 0.0 0.0 0.00 7.80 2.43 88 1008.6
20260505215231 58 253 0.0 0.0 0.00 7.80 2.43 88 1008.6
20260505214731 58 252 0.0 0.0 0.00 7.80 2.43 87 1008.9
20260505214231 58 250 0.0 0.0 0.00 7.80 2.43 87 1008.9
20260505213731 58 249 0.0 0.0 0.00 7.80 2.43 87 1009.1
20260505213231 58 262 0.0 0.0 0.00 7.80 2.43 86 1009.4
20260505212731 58 236 0.0 0.0 0.00 7.80 2.43 85 1009.1
20260505212231 58 248 0.0 0.0 0.00 7.80 2.43 85 1009.1
20260505211730 58 254 0.0 0.0 0.00 7.80 2.43 84 1009.3
20260505211230 57 250 0.0 0.0 0.00 7.80 2.43 82 1009.3
20260505210730 57 259 0.0 0.0 0.00 7.80 2.43 81 1009.1
20260505210230 57 255 0.0 0.0 0.00 7.80 2.43 81 1009.2
20260505205730 57 241 0.0 0.0 0.00 7.80 2.43 81 1009.2
20260505205230 58 272 0.0 0.0 0.00 7.80 2.43 81 1009.1
20260505204730 58 266 0.0 0.0 0.00 7.80 2.43 83 1009.0
20260505204230 58 257 0.0 0.0 0.00 7.80 2.43 84 1008.7
20260505203730 58 257 0.0 0.0 0.00 7.80 2.43 84 1008.9
20260505203230 58 257 0.0 0.0 0.00 7.80 2.43 84 1009.0
20260505202730 58 257 0.0 0.0 0.00 7.80 2.43 84 1009.1
20260505202230 58 261 0.0 0.0 0.00 7.80 2.43 85 1008.9
20260505201730 58 251 0.0 0.0 0.00 7.80 2.43 85 1008.7
20260505201230 58 272 0.0 0.0 0.00 7.80 2.43 84 1008.8
20260505200730 58 251 0.0 0.0 0.00 7.80 2.43 84 1008.8
20260505200230 58 261 0.0 0.0 0.00 7.80 2.43 84 1008.7
20260505195730 59 269 0.0 0.0 0.00 7.80 2.43 84 1008.6
20260505195230 59 267 0.0 0.0 0.00 7.80 2.43 83 1008.5
20260505194730 59 272 0.0 0.0 0.00 7.80 2.43 83 1008.5
20260505194230 59 266 0.0 0.0 0.00 7.80 2.43 82 1008.5
20260505193730 59 268 0.0 0.0 0.00 7.80 2.43 82 1008.6
20260505193229 59 271 0.0 0.0 0.00 7.80 2.43 82 1008.5
20260505192729 59 279 0.0 0.0 0.00 7.80 2.43 83 1008.4
20260505192229 59 265 0.0 0.0 0.00 7.80 2.43 83 1008.5
20260505191729 60 266 0.0 0.0 0.00 7.80 2.43 83 1008.5
20260505191229 60 265 0.0 0.0 0.00 7.80 2.43 82 1008.5
20260505190729 60 270 0.0 0.0 0.00 7.80 2.43 82 1008.4
20260505190229 60 267 0.0 0.0 0.00 7.80 2.43 81 1008.7
20260505185729 60 267 0.0 0.0 0.00 7.80 2.43 81 1008.7
20260505185229 60 263 0.0 0.0 0.00 7.80 2.43 81 1008.6
20260505184729 60 250 0.0 0.0 0.00 7.80 2.43 80 1008.8
20260505184229 60 258 0.0 0.0 0.00 7.80 2.43 80 1008.9
20260505183729 61 279 0.0 6.1 0.00 7.80 2.43 79 1008.8
20260505183229 61 248 0.0 0.0 0.00 7.80 2.43 78 1009.0
20260505182729 61 288 2.6 6.1 0.00 7.80 2.43 78 1009.0
20260505182229 61 236 0.0 6.1 0.00 7.80 2.43 77 1008.9
20260505181729 62 248 0.0 0.0 0.00 7.80 2.43 76 1009.0
20260505181229 62 253 0.0 0.0 0.00 7.80 2.43 76 1008.9
20260505180729 62 222 0.0 0.0 0.00 7.80 2.43 76 1008.9
20260505180229 63 237 0.0 0.0 0.00 7.80 2.43 75 1008.9
20260505175728 63 249 0.0 0.0 0.00 7.80 2.43 75 1008.9
20260505175228 63 246 0.0 6.1 0.00 7.80 2.43 75 1008.8
20260505174728 64 244 0.0 0.0 0.00 7.80 2.43 74 1008.8
20260505174228 64 242 0.0 0.0 0.00 7.80 2.43 73 1008.8
20260505173728 65 216 0.0 0.0 0.00 7.80 2.43 72 1008.8
20260505173228 66 263 0.0 0.0 0.00 7.80 2.43 71 1008.8
20260505172728 67 282 0.0 0.0 0.00 7.80 2.43 69 1008.9
20260505172228 68 230 0.9 6.1 0.00 7.80 2.43 68 1009.0
20260505171728 69 257 0.0 0.0 0.00 7.80 2.43 67 1008.6
20260505171228 71 261 0.0 6.1 0.00 7.80 2.43 63 1008.8
20260505170728 73 296 0.0 0.0 0.00 7.80 2.43 61 1008.9
20260505170228 73 271 0.0 0.0 0.00 7.80 2.43 59 1008.9
20260505165728 73 309 0.0 0.0 0.00 7.80 2.43 59 1009.0
20260505165228 73 248 0.0 0.0 0.00 7.80 2.43 53 1009.0
20260505164728 72 321 0.0 0.0 0.00 7.80 2.43 49 1009.1